Location: Newark
(52.4787°S, 179.0532°W)
Time: 18:46:39
(UTC+00:00)

ISS - Visible Passes

Search period start: 21 October 2019 00:00
Search period end: 31 October 2019 00:00
Orbit: 411 x 421 km, 51.6° (Epoch: 21 October)

Date Brightness Start Highest point End Pass type
(mag) Time Alt. Az. Time Alt. Az. Time Alt. Az.
21 Oct -2.9 08:01:18 10° NW 08:04:21 32° NNE 08:06:19 18° E visible
21 Oct -2.2 09:37:27 10° WNW 09:39:15 29° WNW 09:39:15 29° WNW visible
22 Oct -3.8 08:48:56 10° WNW 08:52:18 64° NNE 08:53:08 45° ENE visible
22 Oct -1.0 10:25:34 10° W 10:26:03 13° W 10:26:03 13° W visible
23 Oct -3.6 08:00:28 10° WNW 08:03:46 52° NNE 08:06:47 12° E visible
23 Oct -3.2 09:36:59 10° W 09:39:41 52° WNW 09:39:41 52° WNW visible
24 Oct -3.8 08:48:25 10° W 08:51:50 78° N 08:53:08 35° E visible
24 Oct -1.3 10:25:07 10° W 10:26:02 17° W 10:26:02 17° W visible
25 Oct -3.8 07:59:51 10° WNW 08:03:14 72° N 08:06:30 11° E visible
25 Oct -3.4 09:36:31 10° W 09:39:23 55° WNW 09:39:23 55° WNW visible
26 Oct -3.8 08:47:55 10° W 08:51:20 76° N 08:52:40 34° ENE visible
26 Oct -1.3 10:24:41 10° W 10:25:33 16° W 10:25:33 16° W visible
27 Oct -3.8 07:59:18 10° W 08:02:43 79° N 08:05:53 12° E visible
27 Oct -3.0 09:36:01 10° W 09:38:46 41° NW 09:38:46 41° NW visible
28 Oct -3.6 08:47:23 10° W 08:50:45 58° NNW 08:51:57 34° NE visible
28 Oct -1.0 10:24:28 10° W 10:24:50 12° W 10:24:50 12° W visible
29 Oct -3.7 07:58:44 10° W 08:02:09 69° N 08:05:08 13° ENE visible
29 Oct -2.3 09:35:37 10° W 09:38:00 26° NW 09:38:00 26° NW visible
30 Oct -2.9 08:46:51 10° W 08:50:03 37° NNW 08:51:10 28° NNE visible
